SES-6

Last updated on Thu Nov 21 2024 00:02:42 GMT+0000 (Coordinated Universal Time)

1 39172U 13026A 24325.28724206 -.00000259 00000+0 00000+0 0 9996 2 39172 0.0254 316.1998 0002655 288.6850 237.8274 1.00270389 41971
UTC large
Height (km)
Speed (km/s)
/
Latitude / Longitude
Inclination (degrees)
Orbital Period (minutes)
Azimuth
Elevation
Range (km)
Doppler Factor

Next 0 passes for location: London (51.5072 / 0.1276)

Sorry there are no passes over London.